Regional Weather Roundup
Issued by NWS Kansas City/Pleasant Hill, MO

Home | Current Version | Previous Version | Graphics & Text | Print | Product List | Glossary Off
Versions: 1 2 3 4 5 6 7 8 9 10 11 12 13 14 15 16 17 18 19 20 21 22 23 24 25 26 27

000
ASUS43 KEAX 030610
RWREAX

WEATHER ROUNDUP FOR EASTERN KANSAS AND NORTHWEST MISSOURI
NATIONAL WEATHER SERVICE KANSAS CITY/PLEASANT HILL MO
100 AM CDT TUE MAY 03 2016

KSZ040-057-103>105-MOZ028-029-037-043-030700-
...KANSAS CITY METROPOLITAN AREA...

CITY           SKY/WX    TMP DP  RH WIND       PRES   REMARKS
K.C. INTL      CLEAR     48  44  86 W5        30.07S
6HR MIN TEMP:  46; 6HR MAX TEMP:  57;

K.C. DOWNTOWN  CLEAR     48  45  89 CALM      30.07R
6HR MIN TEMP:  48; 6HR MAX TEMP:  57;

LEES SUMMIT    CLEAR     46  44  93 W6        30.07S
6HR MIN TEMP:  46; 6HR MAX TEMP:  54;

OLATHE - IXD   PTCLDY    47  43  86 W3        30.07F
6HR MIN TEMP:  47; 6HR MAX TEMP:  56;

OLATHE - OJC   PTCLDY    47  43  86 W5        30.07S
6HR MIN TEMP:  45; 6HR MAX TEMP:  54;

LAWRENCE       CLEAR     41  41 100 CALM      30.07F

$$

MOZ001>008-011>017-020>025-030>033-038>040-044>046-053-054-030700-
...NORTHERN AND CENTRAL MISSOURI...

CITY           SKY/WX    TMP DP  RH WIND       PRES   REMARKS
ST. JOSEPH     CLEAR     47  45  93 CALM      30.07R FOG
6HR MIN TEMP:  46; 6HR MAX TEMP:  60;

MOSBY          CLEAR     45  45 100 CALM      30.07S
WARRENSBURG    CLEAR     45  45 100 CALM      30.06S
WHITEMAN AFB   NOT AVBL
CLINTON        CLEAR     43  43 100 CALM      30.08R
SEDALIA        CLEAR     47  45  93 SW3       30.07S
6HR MIN TEMP:  47; 6HR MAX TEMP:  53;

WARSAW         NOT AVBL
CHILLICOTHE      N/A     43  43 100 CALM      30.07R
6HR MIN TEMP:  42; 6HR MAX TEMP:  60;

KIRKSVILLE     FOG       40  38  93 CALM      30.06R VSB 3/4
6HR MIN TEMP:  40; 6HR MAX TEMP:  54;


$$

MOZ041-047>049-056>058-063>065-088>090-097-030700-
...EASTERN AND SOUTHERN MISSOURI...

CITY           SKY/WX    TMP DP  RH WIND       PRES   REMARKS
ST. LOUIS INTL CLOUDY    54  49  83 NW3       30.03F
6HR MIN TEMP:  53; 6HR MAX TEMP:  56; 6HR PCP: TRACE;

SPIRIT OF STL  CLOUDY    52  50  93 W3        30.03S
COLUMBIA       FOG       45  44  97 CALM      30.05S VSB 1/4
JEFFERSON CITY PTCLDY    46  45  96 N3        30.06S FOG
ROLLA          CLOUDY    48  47  96 NW3       30.03S
OSAGE BEACH    PTCLDY    45  36  70 CALM      30.06S
SPRINGFIELD    PTCLDY    45  43  93 NW3       30.06S FOG
JOPLIN         CLEAR     45  45 100 CALM      30.08S FOG
WEST PLAINS    CLOUDY    51  45  79 N3        30.05F

$$

IAZ060-094-KSZ022-034>040-054-083-096-NEZ052-066-093-030700-
...KANSAS...SOUTHEAST NEBRASKA AND IOWA...

CITY           SKY/WX    TMP DP  RH WIND       PRES   REMARKS
TOPEKA         FOG       44  42  93 CALM      30.08R VSB 3/4
6HR MIN TEMP:  43; 6HR MAX TEMP:  59;

MANHATTAN      CLEAR     45  40  82 CALM      30.06F
EMPORIA        PTCLDY    46  43  89 S5        30.07F
CHANUTE        CLEAR     43  40  89 CALM      30.08S
WICHITA        PTCLDY    45  40  82 SW5       30.07F
OMAHA          PTCLDY    47  44  90 CALM      30.05S
LINCOLN        MOCLDY    50  43  77 CALM      30.07R
FALLS CITY     CLEAR     47  42  83 S3        30.06R
LAMONI         CLEAR     44  42  93 W3        30.06R
DES MOINES     PTCLDY    48  40  73 CALM      30.05S

$$





USA.gov is the U.S. government's official web portal to all federal, state and local government web resources and services.